Wind_Speed
11 11 10 8 8 7 5 3 1 2 3 5 6 6 6 5 6 7 8 8 8 8 8 8 8 7 6 6 6 5 5 5 6 6 7 8 8 7 7 7 7 8 8 8 8 7 6 5 5 5 5 5 5 5 5 4 4 4 2 3 4 3 5 9 12 11 12 12 13 14 16 16 16 16 15 13 11 11 11 11 12 14 18 18 18 20 21 21
11 10 9 9 7 6 5 2 1 2 3 5 6 6 5 5 7 8 9 9 9 9 8 8 8 7 6 6 6 5 6 6 5 7 8 8 8 8 8 8 8 8 8 7 7 6 5 5 5 5 5 4 5 5 5 5 5 3 1 3 4 6 9 11 12 12 11 12 13 15 16 17 17 17 15 11 9 11 9 8 10 11 13 13 14 15 16 18
10 10 9 8 7 6 4 1 1 2 3 5 5 5 5 6 8 9 9 10 9 8 8 8 8 7 6 6 6 5 6 5 6 8 9 8 8 8 8 8 8 8 8 7 7 6 6 5 5 6 5 4 6 6 6 6 5 3 2 1 5 8 9 9 9 10 12 13 14 15 16 17 16 15 14 10 9 13 8 6 8 9 10 10 11 13 14 16
10 9 8 7 7 6 3 1 1 2 4 5 5 5 5 7 9 9 10 9 8 7 7 8 8 7 6 6 5 6 7 6 8 9 9 9 8 9 8 8 8 7 8 7 7 7 7 8 7 7 6 5 6 6 6 6 4 3 2 2 6 7 7 8 9 11 12 13 13 13 14 15 14 14 13 9 9 11 10 8 8 9 11 13 14 15 16 17
8 8 7 7 6 4 2 2 1 2 4 4 4 5 6 8 9 10 9 8 7 7 7 7 7 6 6 6 6 8 8 5 8 9 8 9 9 8 8 8 8 8 8 8 8 9 8 8 8 7 7 7 6 5 4 4 2 2 2 2 5 5 6 10 11 11 12 12 12 13 13 12 13 13 12 10 9 10 11 10 10 11 13 15 17 18 18 19
9 8 6 5 5 4 2 1 1 3 4 4 4 6 7 9 9 9 8 7 6 6 6 6 6 6 6 7 6 8 9 5 7 9 9 9 9 8 8 8 8 9 9 9 9 8 8 8 7 7 6 5 4 2 2 3 3 3 4 4 5 6 8 10 11 12 12 11 12 12 11 12 13 12 11 10 10 11 11 11 12 14 15 17 19 20 21 22
11 10 8 4 3 3 2 0 2 3 4 4 5 7 8 9 9 8 7 6 6 6 6 6 7 6 7 7 6 10 10 6 7 9 8 9 8 9 8 8 8 8 8 9 9 8 7 6 6 5 4 3 3 2 2 4 6 5 6 8 8 9 9 9 11 12 13 12 11 11 10 10 11 10 10 10 12 12 11 12 15 16 17 19 20 21 24 26
12 11 10 8 5 4 2 1 2 3 3 4 6 7 8 8 7 7 6 6 6 6 7 7 7 7 8 8 10 11 8 6 8 8 8 9 8 8 8 8 8 7 8 9 8 7 7 6 5 4 4 4 4 4 5 6 8 8 8 9 9 10 10 10 12 12 13 13 11 10 9 8 9 10 9 11 14 12 12 13 16 17 19 20 21 23 26 28
12 11 11 9 6 4 2 1 2 3 4 5 7 7 8 7 6 6 6 6 7 8 8 8 8 8 9 8 11 10 6 7 8 8 9 8 8 8 8 8 8 8 8 7 8 8 7 6 6 5 7 7 6 6 7 8 8 10 10 10 10 10 11 12 14 12 12 12 11 9 7 6 8 9 10 13 15 13 14 15 16 18 19 21 23 26 28 29
10 11 10 8 6 3 2 2 3 4 4 6 7 7 7 6 6 6 7 7 8 9 9 9 9 9 9 8 9 8 6 8 8 8 9 8 9 8 8 9 8 7 7 7 9 9 8 7 7 8 9 9 10 9 9 10 10 11 11 11 11 10 11 13 14 13 10 11 10 6 5 5 6 8 10 14 16 15 15 16 17 19 20 23 25 27 29 29
10 10 9 7 5 3 2 3 4 4 5 6 7 7 6 6 6 7 8 8 9 10 11 10 10 10 10 8 6 6 7 8 8 8 8 9 9 8 8 9 8 8 8 9 10 10 10 10 9 9 9 8 10 9 9 9 8 12 13 10 10 10 11 13 13 13 10 10 9 5 5 6 6 8 12 15 16 15 16 17 19 21 23 25 27 28 29 29
11 9 8 6 5 3 3 4 4 4 5 6 6 6 6 6 7 8 8 9 10 11 11 10 10 10 9 6 5 7 9 9 9 8 8 9 9 8 9 8 8 9 9 10 11 10 12 13 12 12 10 8 8 9 9 8 6 7 12 12 9 10 12 12 13 13 10 9 9 6 4 7 10 11 14 16 16 16 17 19 21 24 26 28 29 30 30 31
10 9 8 6 5 4 4 4 4 4 5 6 6 6 7 8 8 8 8 8 9 10 11 11 11 10 6 5 8 10 10 9 8 8 8 9 9 9 9 9 9 9 10 12 10 10 13 14 14 13 11 9 10 10 9 9 7 4 10 15 11 8 10 11 12 12 10 8 9 6 3 9 16 16 16 18 19 18 19 21 23 25 28 30 31 32 32 33
10 9 8 6 5 4 3 3 4 5 6 6 7 8 9 9 9 9 8 8 8 8 9 10 11 10 7 7 9 9 9 9 8 9 10 10 10 10 10 10 10 11 12 12 12 13 15 14 13 12 10 9 8 8 8 11 13 9 7 13 14 8 8 12 13 13 10 7 8 6 5 11 19 19 18 20 20 21 21 22 23 25 28 31 32 33 34 35
10 9 7 6 5 3 3 3 5 6 7 8 9 10 9 9 9 8 8 8 9 9 8 8 9 9 8 8 9 9 9 10 9 10 10 10 11 10 10 11 12 13 12 13 14 14 14 12 10 11 11 9 6 5 9 12 14 14 9 10 16 13 11 13 14 15 12 9 9 6 6 14 20 20 21 22 22 22 23 23 24 25 28 31 32 33 34 36
10 8 7 5 4 3 4 5 6 7 9 10 10 10 10 10 9 9 8 7 8 9 9 8 8 7 8 10 10 10 11 11 10 11 11 11 11 10 10 11 12 13 12 12 12 11 12 9 8 10 11 11 9 5 5 10 13 16 14 11 16 18 15 12 13 16 15 13 11 7 7 15 21 21 22 23 23 23 24 24 24 24 27 31 33 33 34 36
9 7 6 4 4 4 5 7 9 10 10 10 10 10 10 9 9 9 9 9 9 9 9 9 8 8 9 10 10 10 11 11 11 11 11 11 11 11 11 11 11 13 12 11 10 10 8 7 8 11 11 12 12 8 5 9 15 18 17 14 15 17 16 13 14 18 17 13 13 13 13 15 19 21 23 24 24 24 23 24 24 23 26 31 33 34 34 37
7 6 5 5 5 6 8 10 11 11 10 10 10 10 9 8 7 6 6 7 8 9 10 9 7 9 11 11 11 12 13 12 11 11 11 11 11 11 11 11 12 12 12 11 10 10 9 7 6 7 11 13 15 16 12 10 14 17 18 17 18 18 18 16 16 20 18 10 11 16 19 20 21 21 23 24 25 25 24 23 23 24 26 31 33 33 35 38
7 6 6 6 7 8 10 12 12 12 11 11 11 10 10 9 8 7 6 6 6 9 12 13 11 12 13 13 13 14 14 12 11 11 10 11 10 11 11 11 12 11 10 10 9 11 10 5 4 7 14 18 19 19 15 12 12 15 17 19 20 18 20 18 17 22 20 9 9 16 20 22 23 22 23 23 25 27 26 25 24 24 27 30 32 33 36 39
8 7 7 8 9 11 12 13 13 13 13 13 12 12 12 11 9 8 7 8 12 14 15 17 17 16 14 12 13 14 13 12 12 12 11 11 11 12 12 11 11 7 8 10 10 11 10 6 9 14 16 17 17 15 14 13 12 15 17 19 18 16 21 20 17 23 22 13 12 16 22 23 23 22 20 20 23 26 27 26 25 25 29 31 33 35 37 37
9 8 9 10 11 13 13 14 15 16 15 15 14 13 12 12 12 11 10 13 17 17 16 17 17 16 15 12 12 13 13 13 12 11 11 12 12 12 11 10 9 7 9 11 10 9 9 11 16 16 14 14 14 14 15 13 12 17 18 18 18 18 26 23 19 24 22 17 15 16 21 24 26 21 16 19 21 22 24 24 25 28 31 33 35 37 36 37
10 10 11 12 13 14 15 16 17 17 17 17 15 14 13 13 14 13 14 18 19 17 16 15 14 15 15 14 13 11 11 11 11 10 12 12 12 11 10 9 9 9 9 9 9 9 11 14 15 12 13 13 12 14 15 13 13 15 17 21 22 26 31 25 22 25 22 19 15 14 17 23 26 18 14 20 21 20 22 23 26 30 32 35 36 35 36 39
12 12 13 14 15 15 17 18 19 18 17 16 15 13 12 12 13 13 15 18 18 17 17 15 13 12 13 13 13 10 7 8 9 11 11 11 11 10 10 10 9 9 8 8 9 10 13 14 12 11 12 12 13 15 16 15 11 10 17 25 28 31 29 25 27 26 21 17 12 12 18 22 22 18 18 23 20 20 22 23 27 30 33 34 34 35 39 44
14 14 14 15 15 16 17 18 18 16 14 13 11 10 9 8 9 10 13 16 17 17 15 14 13 12 12 11 11 11 9 9 10 11 11 10 10 10 10 10 9 8 7 8 9 12 13 11 11 11 12 13 15 15 16 17 10 9 16 24 30 33 25 23 26 24 21 13 9 13 17 17 17 20 23 22 19 20 22 24 28 31 32 32 33 40 45 48
14 15 14 15 15 16 17 17 15 12 9 8 6 7 7 5 4 6 10 14 17 16 14 13 12 13 14 11 9 9 10 10 11 11 11 10 10 10 11 10 9 7 6 7 9 12 12 11 11 11 12 15 16 16 17 18 12 7 14 23 32 31 25 24 22 20 21 12 9 14 10 11 18 21 22 20 20 22 23 25 29 29 30 34 41 48 51 51
15 15 14 14 14 14 15 13 10 7 3 2 4 6 5 3 2 4 6 9 14 17 15 14 13 13 14 14 12 9 8 10 12 12 11 10 10 10 10 10 9 6 5 5 7 10 11 11 11 12 15 15 15 16 17 19 13 6 14 27 33 27 24 24 17 16 18 13 14 9 3 14 20 16 18 21 22 24 25 25 27 28 32 41 48 51 52 50
15 14 14 13 13 13 12 10 7 2 1 1 3 5 5 4 2 2 2 3 9 15 15 13 13 14 14 15 15 11 8 10 11 10 10 9 10 9 9 10 8 6 5 5 5 8 10 12 12 14 15 14 15 17 17 19 15 11 19 29 32 26 22 21 14 14 17 18 14 3 4 20 20 13 17 23 22 21 24 24 26 32 39 47 51 49 47 47
14 13 12 11 11 9 8 7 4 2 2 2 3 4 4 5 3 1 2 1 6 12 13 12 12 13 14 14 14 12 10 10 9 8 9 9 10 9 8 9 8 7 6 5 4 4 9 13 13 14 16 15 17 18 17 18 17 18 23 31 33 24 19 17 13 14 15 15 7 2 12 18 17 20 19 19 18 16 20 26 30 39 46 50 49 45 45 49
12 11 9 8 7 6 6 5 4 3 3 2 3 4 3 4 4 3 3 2 5 10 11 12 11 11 13 12 12 11 10 9 9 9 9 10 10 9 8 8 7 8 7 5 3 3 7 14 15 15 16 17 17 18 19 18 18 22 25 35 35 21 18 16 10 13 13 10 5 6 18 14 15 25 16 9 12 14 22 32 38 45 47 46 44 44 50 54
9 8 7 6 5 4 4 3 3 2 2 1 2 2 3 3 2 2 3 2 5 8 9 10 10 10 11 11 11 11 10 10 10 10 10 10 11 9 7 7 5 7 10 10 8 7 5 9 17 18 17 18 18 18 20 18 19 25 29 36 32 18 17 13 9 13 11 8 9 13 19 14 13 18 13 10 15 21 33 39 42 44 41 40 44 48 53 58
7 6 5 4 3 2 1 0 1 1 1 1 1 0 2 3 2 2 2 1 3 6 7 8 10 10 9 9 10 10 9 10 10 9 9 10 9 7 6 8 5 4 9 11 12 10 8 7 13 19 18 19 20 17 18 18 18 24 29 31 27 17 13 9 9 12 7 7 13 19 25 18 11 13 17 21 26 33 40 40 38 36 34 39 46 49 56 66
6 5 4 3 2 3 3 5 5 5 4 3 2 1 1 3 5 5 3 1 2 3 5 7 8 9 9 9 10 10 9 10 10 10 10 10 10 8 8 11 11 5 4 9 12 11 8 9 10 18 20 20 20 15 14 15 14 19 27 27 21 14 11 8 8 10 9 11 17 25 27 17 15 19 21 28 36 41 43 39 33 29 32 41 45 50 64 73
6 5 4 4 4 5 5 5 5 5 5 5 5 4 3 4 6 6 4 2 1 3 4 5 7 8 9 9 10 10 10 11 11 11 11 11 11 12 11 12 13 10 6 9 12 10 6 9 9 17 22 21 19 15 14 15 12 15 23 22 15 10 7 7 8 8 11 17 27 30 21 16 20 21 23 35 43 41 39 37 33 33 41 47 50 59 70 70
8 7 6 5 5 5 6 5 5 5 5 5 5 5 6 7 6 5 6 4 2 2 3 4 6 8 10 10 11 11 10 11 12 11 11 11 11 12 12 11 12 12 10 8 10 11 5 6 8 14 20 22 19 15 17 17 11 12 17 16 13 9 6 6 8 9 12 21 31 26 13 13 20 22 31 40 37 33 35 38 40 44 50 54 60 69 71 65
9 8 8 7 6 6 6 7 7 6 6 7 6 5 7 8 7 7 6 4 1 1 2 4 6 8 9 10 11 11 10 10 12 11 11 11 10 10 10 10 11 12 11 8 8 11 7 6 9 13 20 25 19 15 18 16 9 10 14 15 15 10 8 11 13 16 19 20 20 16 12 17 25 30 34 30 24 28 35 41 44 45 50 59 68 70 64 57
9 9 9 9 8 8 7 7 7 5 5 6 4 5 9 10 8 6 5 4 2 2 3 4 7 7 7 9 11 11 10 11 12 11 11 11 9 9 10 9 10 12 12 9 9 12 9 8 10 12 22 26 18 16 18 13 11 10 11 16 17 10 6 10 15 19 18 13 13 16 19 26 30 26 19 16 23 31 34 39 44 46 54 65 67 64 58 50
10 10 10 10 9 8 6 6 6 5 6 4 4 8 12 11 8 6 5 5 5 5 5 4 6 7 6 7 9 10 10 11 12 9 9 10 8 8 10 9 10 12 12 11 10 12 12 11 8 9 22 25 16 16 16 12 15 13 10 18 18 7 4 8 12 15 12 8 13 19 23 29 28 16 13 22 30 33 36 43 51 56 61 66 63 57 52 47
12 11 10 9 8 6 6 6 6 8 8 6 7 12 11 9 8 7 6 6 6 7 7 5 5 7 7 7 8 10 10 9 12 10 7 9 9 8 10 10 9 11 12 11 12 13 13 11 6 8 22 23 12 13 14 12 18 17 13 20 19 5 5 11 11 10 9 7 11 19 24 25 21 16 22 29 29 34 43 48 54 58 58 59 57 53 50 47
12 12 11 10 9 8 8 7 8 9 8 5 8 11 9 9 9 7 7 7 6 7 8 7 7 7 8 9 9 11 11 10 12 12 8 9 10 9 10 10 9 11 12 13 14 15 14 8 5 11 22 18 8 10 12 12 16 15 12 18 19 8 7 16 12 8 11 10 9 17 19 16 20 24 26 25 28 38 47 51 53 52 50 51 52 53 53 48
12 11 11 10 10 10 10 12 12 10 7 7 9 10 9 10 9 8 7 8 8 8 8 8 9 9 10 11 11 13 13 12 12 12 10 11 11 10 10 10 10 11 12 14 15 17 16 5 9 18 23 12 8 11 12 12 12 10 9 13 17 12 11 16 11 7 10 10 8 13 12 19 33 32 22 23 33 42 46 49 50 47 47 48 49 52 51 44
11 10 11 10 9 9 10 13 13 8 6 9 11 11 11 10 9 9 8 8 9 9 10 10 10 11 11 12 12 14 15 13 12 12 13 13 12 10 10 11 12 11 12 14 15 18 17 7 12 22 22 13 14 16 14 13 12 12 11 13 17 15 14 13 8 7 13 12 14 14 12 28 40 27 20 29 38 44 46 46 48 48 48 49 49 51 48 43
10 10 13 12 10 11 11 10 10 9 10 12 13 12 11 10 9 9 8 8 9 9 10 11 11 11 12 12 12 14 16 14 11 12 14 13 13 12 12 13 12 11 12 12 13 18 17 11 13 20 18 16 18 17 13 14 16 15 14 15 19 18 15 11 9 14 19 17 22 20 16 31 38 23 24 37 42 45 45 44 49 50 46 47 50 49 48 46
11 12 15 14 13 14 11 8 9 11 13 14 13 12 11 10 9 9 9 9 9 9 9 10 11 11 12 13 12 13 16 13 11 13 15 14 15 14 13 13 12 12 12 11 13 17 15 13 16 18 17 17 17 14 12 15 18 15 16 20 23 21 18 16 16 20 20 17 21 18 15 31 44 38 39 46 45 44 43 44 52 49 42 44 48 47 48 46
12 15 16 16 15 14 12 11 13 13 14 15 13 11 11 10 9 9 9 10 9 9 9 10 11 11 12 12 12 13 15 13 12 14 15 15 16 15 14 14 13 13 13 11 14 15 12 12 16 16 15 14 13 11 12 18 20 17 20 25 27 23 19 20 22 19 14 15 20 16 16 34 54 58 57 53 45 42 42 44 48 45 42 44 47 49 49 45
11 14 16 17 15 13 14 16 15 14 15 15 13 12 11 10 10 9 9 10 10 10 10 11 12 12 12 13 13 14 15 15 14 14 16 17 16 15 14 15 15 14 14 12 14 14 13 13 12 11 9 9 11 12 13 20 23 22 22 25 28 25 18 20 22 15 15 21 24 20 24 42 61 67 66 58 45 42 45 46 45 41 39 43 47 51 51 46
10 12 15 17 16 15 17 18 16 15 15 14 13 13 11 10 10 9 9 9 10 11 10 11 12 13 13 14 14 15 16 18 16 14 17 18 16 15 15 15 15 15 14 14 14 14 15 12 9 11 13 14 18 19 17 21 24 23 21 23 28 23 16 21 21 16 20 26 25 25 29 44 61 67 65 57 46 44 48 48 46 42 42 49 52 52 51 47
12 12 13 14 15 16 18 18 17 16 15 13 13 13 12 11 10 9 9 9 10 12 11 11 13 13 14 15 16 16 18 19 18 17 19 18 16 16 16 16 16 15 15 15 14 15 17 11 9 16 22 21 20 19 18 21 23 23 21 23 25 20 17 24 22 18 19 19 26 40 43 45 58 64 59 54 50 51 53 51 47 43 47 57 59 56 54 49
16 17 17 16 16 17 18 18 17 16 14 13 13 12 11 11 11 10 10 10 11 12 12 12 13 14 15 15 16 18 19 20 20 19 19 19 18 17 17 17 15 15 16 15 15 18 18 12 14 23 27 24 19 18 21 24 22 21 19 19 19 20 22 28 25 18 15 17 31 49 50 46 54 57 52 53 54 54 54 51 45 44 49 57 59 57 55 52
20 20 20 20 19 19 18 18 17 16 14 13 12 12 12 11 11 11 11 11 11 12 12 13 14 15 15 15 17 18 19 20 20 20 20 19 18 17 17 17 15 15 16 16 17 18 17 16 20 26 30 26 20 21 26 26 23 21 17 14 15 20 22 24 26 22 22 30 40 45 46 49 52 50 50 55 55 53 53 47 42 47 54 56 56 55 53 53
21 21 20 20 20 20 19 17 16 15 14 13 12 12 12 12 12 12 11 12 12 13 13 13 14 15 16 17 18 18 19 20 21 21 21 19 18 17 16 15 15 15 15 16 17 17 17 20 23 28 32 26 19 23 28 25 22 19 15 11 15 23 19 16 26 33 35 45 50 44 44 49 48 45 52 58 56 52 51 48 49 58 61 56 53 52 51 54
22 22 20 19 20 20 18 17 16 15 13 13 12 13 12 12 13 12 12 12 13 13 14 14 15 16 17 18 19 19 21 21 21 22 21 19 18 17 15 15 15 15 16 16 16 18 20 23 27 29 28 20 17 26 29 23 19 14 11 11 18 24 20 18 30 38 39 45 48 42 41 43 42 45 54 61 60 53 50 52 61 67 61 51 48 49 51 56
22 22 21 18 19 19 17 16 16 14 13 13 13 13 13 12 13 13 13 13 13 14 14 15 16 17 19 20 21 21 22 22 22 22 21 19 18 17 16 16 15 16 17 16 16 19 20 23 27 27 23 21 23 30 27 18 11 5 7 15 21 22 23 29 38 44 42 39 37 37 39 41 45 51 57 62 62 57 54 56 62 62 53 46 46 49 55 62
Wind_Direction
166 162 164 168 169 172 173 166 131 332 324 332 342 353 356 352 356 359 356 354 354 351 350 352 354 355 356 357 360 6 11 7 1 3 4 357 350 343 345 350 353 357 359 2 3 2 3 6 5 360 358 351 341 333 340 337 335 360 353 278 279 305 294 289 301 307 308 312 315 314 315 318 317 322 330 332 327 314 315 314 304 294 293 298 301 302 305 305
163 164 168 171 172 172 167 155 332 320 325 336 346 358 355 351 358 357 355 352 351 351 351 354 356 359 4 7 7 9 8 4 6 4 354 344 342 347 354 2 6 6 10 10 7 3 6 14 12 10 15 3 348 347 349 343 347 360 290 285 290 296 291 291 302 309 315 323 322 319 320 322 325 328 330 337 325 315 325 315 304 298 297 304 307 309 313 315
159 165 169 171 172 168 158 153 289 309 329 338 350 358 351 356 359 355 353 350 350 352 353 355 358 4 12 17 14 5 360 0 6 1 353 350 354 3 9 14 15 16 17 14 14 16 19 26 25 23 26 13 359 0 355 347 346 356 27 293 281 298 304 304 311 320 329 333 331 327 327 329 333 334 336 340 320 317 324 302 299 301 302 307 311 317 317 318
155 160 163 169 171 162 153 208 262 323 341 344 351 352 356 358 355 353 351 350 353 353 354 356 359 8 14 19 18 10 9 13 14 7 2 6 11 17 20 21 23 27 27 25 27 29 32 34 30 29 34 24 10 13 2 350 346 354 24 249 278 300 312 326 337 337 339 342 342 340 338 340 342 341 338 335 314 309 307 303 311 312 313 316 316 316 315 316
160 156 151 160 167 159 169 213 284 351 349 347 353 358 360 354 351 352 351 355 357 354 356 357 3 8 8 15 19 20 20 16 15 17 18 21 26 30 31 32 36 42 40 38 39 39 39 35 34 34 36 29 17 16 2 355 4 357 342 287 305 322 327 344 354 349 349 356 354 349 349 347 343 340 334 326 308 299 303 313 321 318 316 315 313 314 315 315
176 175 159 156 168 168 193 209 5 356 351 355 4 2 355 351 352 353 356 360 356 357 357 359 9 7 11 19 21 32 36 29 21 29 35 36 39 41 41 42 44 47 46 47 47 44 40 37 41 44 43 32 20 17 5 23 39 15 1 3 4 9 6 4 6 1 0 4 360 354 352 346 341 337 329 317 305 303 309 315 317 316 314 312 313 315 316 313
181 182 172 176 196 189 192 98 15 359 6 14 9 359 353 352 354 356 359 358 357 3 4 10 18 17 29 33 41 47 44 43 43 45 46 45 47 47 46 48 50 53 55 54 46 43 44 50 63 62 53 38 40 72 74 56 48 37 23 26 30 30 31 21 11 6 3 3 1 358 350 344 339 328 319 308 301 306 310 311 311 312 315 316 316 315 314 312
181 181 177 186 205 193 164 48 16 17 29 18 4 357 354 355 355 359 359 2 10 16 21 31 35 44 52 50 58 58 50 57 59 56 53 51 53 52 51 54 59 60 59 53 43 49 53 67 92 83 65 62 66 66 66 65 50 43 40 38 44 43 38 23 13 7 0 1 360 356 350 340 329 316 308 301 299 306 307 307 308 310 315 316 314 312 311 312
186 191 188 188 190 172 119 47 32 41 34 12 3 358 356 356 359 4 10 22 31 37 42 48 56 66 68 65 67 67 66 68 65 60 56 56 58 58 59 62 64 59 57 52 47 54 54 69 90 81 78 75 67 63 65 69 52 43 45 47 53 48 35 22 15 7 356 356 358 351 339 327 316 305 296 295 298 303 305 306 308 310 312 311 309 308 308 309
190 190 186 178 169 142 100 50 45 43 23 8 3 0 359 3 11 22 34 45 51 56 59 63 74 78 76 72 71 75 72 70 68 60 57 59 60 62 64 66 68 62 58 56 52 53 54 66 76 81 90 76 61 65 68 70 59 48 46 46 52 46 32 23 12 4 352 350 356 345 316 307 296 291 287 292 296 297 301 303 306 306 305 304 303 305 307 307
188 179 172 161 145 119 83 51 49 37 15 8 5 3 8 19 35 49 58 66 68 68 66 68 77 75 68 65 71 79 73 71 66 56 55 57 59 63 66 70 71 66 61 57 56 57 59 62 68 80 90 73 60 66 66 62 52 47 44 41 46 41 29 22 10 357 346 347 350 326 292 285 276 280 279 286 290 292 297 299 300 301 300 301 302 304 306 306
177 166 155 142 127 101 69 53 47 27 14 10 9 16 32 47 62 69 73 76 74 71 68 68 74 69 67 77 85 77 70 66 61 56 57 57 60 66 68 71 70 63 60 60 61 65 63 61 63 68 70 65 62 61 50 34 25 37 41 40 30 21 23 17 4 354 344 344 343 324 290 277 276 279 280 284 289 291 295 297 298 300 300 300 302 305 306 306
161 151 140 127 108 84 65 51 39 25 21 20 29 48 61 68 75 77 78 78 75 75 72 71 73 74 87 98 81 70 64 61 60 57 55 59 64 65 67 70 67 61 59 61 63 65 61 55 55 57 55 53 54 55 44 31 32 19 28 34 17 357 11 5 0 1 348 340 333 313 260 266 276 284 288 287 290 292 292 294 297 299 300 299 301 304 306 305
147 136 125 111 93 80 64 51 38 33 37 45 62 73 75 79 81 80 79 77 78 80 78 74 71 73 85 90 76 68 65 64 63 56 55 61 62 63 68 67 62 59 58 55 51 50 50 47 47 49 45 39 43 51 39 30 35 35 28 26 19 5 355 352 360 4 349 330 321 303 253 261 276 285 289 287 288 291 290 290 293 297 299 298 299 302 304 305
134 123 112 102 92 86 69 55 49 54 65 72 78 80 83 85 81 80 81 80 80 79 80 76 71 68 69 77 72 68 67 63 58 55 59 63 58 62 66 63 60 58 56 52 48 47 45 42 38 41 41 32 28 41 30 23 24 31 33 11 10 12 359 353 355 353 343 316 305 303 253 261 277 285 286 287 288 288 287 286 289 295 300 298 297 299 302 303
124 116 110 106 104 91 72 67 70 77 80 82 86 87 89 87 83 80 78 84 86 77 72 66 65 63 61 65 62 63 64 59 57 59 64 61 57 57 59 60 59 56 54 50 47 46 42 34 26 32 36 30 35 61 48 24 12 19 26 7 1 5 360 353 348 349 343 315 294 290 268 267 278 285 285 286 288 287 284 282 284 292 302 301 296 296 299 303
122 119 119 117 109 92 84 83 84 85 87 90 92 91 90 86 82 77 74 83 87 78 66 57 64 68 67 69 68 67 62 59 59 60 61 57 54 51 52 56 54 52 47 38 35 33 23 7 16 29 33 35 41 64 66 21 10 11 14 6 357 2 1 344 338 346 341 319 298 294 299 293 288 290 292 292 292 288 283 282 283 291 305 305 298 297 300 304
128 130 128 123 109 99 95 92 90 90 92 95 94 91 86 76 72 72 78 87 88 77 61 55 73 76 66 68 71 65 58 57 57 58 58 54 51 46 46 46 44 42 32 25 20 13 2 349 2 18 25 33 35 44 51 29 15 9 8 7 1 1 1 346 332 340 340 318 299 299 306 311 307 303 304 303 297 290 285 284 284 292 307 308 302 300 302 305
140 139 132 122 110 106 103 99 95 93 94 96 95 90 80 70 63 60 71 89 93 82 66 59 67 71 62 59 60 55 51 53 51 51 51 46 45 42 42 41 39 34 19 16 10 7 4 338 334 7 21 29 28 32 35 25 15 6 8 9 359 347 347 342 327 336 341 317 298 304 306 309 311 312 312 312 305 294 288 286 287 295 308 310 305 304 304 306
144 136 125 116 112 112 109 106 101 97 95 93 91 87 79 72 62 59 77 94 87 78 69 59 56 60 59 56 58 53 46 45 44 42 39 37 36 33 35 34 29 14 356 6 12 11 3 355 27 31 29 29 27 26 21 15 7 4 10 5 352 336 336 338 329 338 342 322 306 309 312 313 314 315 314 318 314 302 293 287 290 301 309 310 306 305 305 307
137 127 120 118 120 120 115 113 108 102 98 91 87 84 82 80 73 73 86 88 77 69 65 58 53 53 52 50 53 48 36 36 41 38 35 36 33 29 30 21 3 346 348 6 16 6 358 24 41 38 32 27 24 22 14 8 3 9 12 356 349 343 338 339 337 340 342 330 313 306 315 318 318 320 315 318 319 310 301 292 295 306 310 308 305 306 308 310
130 124 124 126 127 124 120 117 110 105 100 94 89 83 82 83 78 76 77 76 71 63 60 56 53 51 49 46 45 43 31 30 35 33 34 33 29 29 24 6 353 352 355 9 20 13 17 38 43 33 28 25 20 18 9 4 4 10 10 357 353 348 342 341 337 338 339 330 309 297 310 309 312 321 316 315 318 314 310 303 303 308 307 305 305 308 311 311
128 128 129 130 129 125 123 120 115 111 104 97 91 83 80 80 79 75 70 69 66 61 57 53 51 49 48 47 46 50 38 25 28 29 32 26 21 23 14 1 359 353 348 11 31 34 40 45 38 28 26 20 15 14 9 6 357 344 355 357 352 347 343 336 331 334 336 321 293 302 313 299 305 322 317 315 315 311 311 306 305 306 305 305 307 311 312 311
131 131 131 130 129 128 128 127 124 119 108 99 91 77 71 72 78 73 64 61 55 52 51 48 49 45 42 41 40 45 39 28 26 25 27 21 14 12 8 4 3 351 348 13 31 40 48 46 31 27 22 15 14 11 7 9 357 309 337 352 348 344 342 331 327 332 337 321 287 317 317 296 307 318 312 312 309 304 303 303 307 308 307 309 310 312 312 310
132 131 130 130 130 133 135 136 134 125 112 101 79 54 49 51 73 73 64 57 44 40 42 38 40 41 38 34 30 32 31 27 23 21 20 14 7 4 4 2 1 2 358 11 34 41 44 37 30 27 15 15 16 8 3 8 7 309 322 346 346 341 340 337 331 331 337 325 301 322 323 309 314 307 305 313 307 302 301 303 309 310 309 312 313 313 313 311
130 130 130 131 133 138 142 145 146 136 117 94 41 26 25 26 117 94 63 54 33 28 34 29 28 31 29 30 30 21 17 20 18 18 13 5 3 1 2 2 5 16 5 6 35 39 34 27 26 21 14 18 14 4 1 4 5 319 321 343 345 342 340 339 333 328 330 316 305 313 336 325 316 299 300 311 308 300 301 305 311 314 314 316 317 315 313 310
130 131 131 133 137 142 150 156 161 161 308 307 353 11 22 27 152 157 24 41 18 17 24 27 27 26 24 29 27 20 19 17 12 9 4 1 360 358 3 5 14 33 23 18 33 29 28 25 20 17 19 21 9 2 359 358 357 336 332 341 345 344 342 335 323 318 319 310 298 239 353 328 320 311 299 303 305 296 301 312 316 316 316 316 313 310 309 312
131 133 134 138 143 150 161 171 188 259 298 290 342 10 35 39 69 76 17 27 6 9 17 22 24 25 25 27 24 24 26 16 9 6 2 3 0 1 7 9 23 37 29 39 45 20 25 25 18 15 18 16 7 3 356 352 350 339 334 342 348 346 340 332 307 302 315 311 282 159 355 334 316 317 303 296 304 292 302 317 315 314 313 310 308 306 310 313
134 139 143 150 157 166 178 199 235 270 294 300 8 33 50 38 43 55 57 54 8 7 14 17 19 21 23 23 20 22 21 14 15 14 8 7 3 4 8 9 29 40 31 34 22 357 21 25 19 12 12 11 2 356 354 352 344 336 335 345 350 345 334 334 304 295 301 297 293 345 349 339 309 315 310 295 305 297 309 315 311 309 307 306 307 309 312 314
141 151 161 172 184 193 205 240 265 275 315 12 66 51 38 32 27 43 55 48 14 16 20 19 20 23 20 16 13 15 15 15 21 23 17 17 14 12 13 10 17 30 30 20 357 339 337 8 14 10 7 4 356 351 350 347 338 340 345 349 350 344 331 325 304 306 291 293 338 346 343 336 304 312 321 311 308 310 314 312 308 308 306 309 311 314 319 321
149 159 167 176 184 192 213 357 42 56 49 75 105 32 33 34 31 70 69 27 9 19 23 21 21 21 15 10 12 14 14 15 21 23 20 23 22 16 19 20 7 2 23 15 356 341 309 317 360 1 358 357 355 350 343 340 340 345 351 352 350 347 337 314 310 322 301 310 339 337 335 326 290 309 319 310 312 316 316 313 311 312 314 318 319 322 325 324
152 150 148 143 124 102 87 84 76 70 71 73 78 116 86 48 49 69 80 24 341 8 19 22 17 12 9 11 14 13 12 13 16 17 20 22 20 21 29 30 28 24 16 1 355 348 305 283 327 348 353 355 355 354 345 342 343 345 354 359 355 349 349 339 333 333 313 311 324 329 331 317 295 312 314 312 319 320 317 318 320 321 323 322 321 322 322 322
119 112 112 109 104 98 91 86 75 68 72 72 72 86 110 85 59 65 78 79 52 20 19 14 8 9 12 13 15 14 11 12 13 15 19 19 23 33 34 30 32 30 13 355 357 354 300 268 309 345 353 352 351 356 353 345 342 348 359 6 1 350 345 334 330 328 315 310 314 320 321 306 306 316 317 317 319 318 317 320 322 320 318 317 315 317 321 325
91 88 93 100 106 99 85 82 78 72 71 69 72 85 98 92 81 82 83 79 77 35 21 8 2 10 14 13 14 12 9 13 12 11 13 15 24 31 26 25 27 21 14 4 355 351 318 262 305 341 351 349 345 349 350 348 344 348 1 8 2 353 327 310 318 318 310 306 310 315 316 311 315 315 313 314 315 315 316 317 317 314 311 313 317 322 326 329
84 81 83 90 99 94 86 85 79 71 68 68 69 87 100 98 96 94 81 78 109 339 358 8 5 8 10 10 9 8 10 12 8 8 9 10 18 20 17 18 17 16 18 12 354 349 328 274 293 328 348 347 342 341 346 355 355 342 352 358 350 336 294 283 294 301 302 301 306 314 312 308 311 308 305 310 317 316 313 315 317 315 312 316 322 325 328 328
84 81 83 88 91 90 89 84 74 63 63 64 67 86 96 102 104 96 85 85 81 19 351 354 1 7 4 358 1 5 6 5 4 8 4 359 5 10 8 7 6 13 15 9 6 359 342 303 291 318 344 345 340 336 342 354 354 342 347 349 345 333 295 283 292 304 306 297 302 314 312 309 312 310 303 317 327 319 316 317 318 316 315 318 323 327 328 328
87 87 88 89 89 88 80 71 67 65 63 65 92 93 92 98 100 97 91 80 66 47 34 6 357 7 4 350 354 359 359 2 4 3 356 351 351 353 356 359 1 6 7 4 5 358 344 323 297 313 339 341 338 338 341 341 340 342 347 351 353 352 324 313 305 311 312 297 302 310 312 310 311 314 310 316 323 323 324 321 317 316 316 318 324 328 328 328
90 91 89 86 84 76 65 63 63 69 68 61 79 87 92 97 96 95 85 71 64 53 46 36 10 7 9 359 350 353 355 356 358 358 350 344 340 335 345 353 355 358 0 360 358 355 347 332 306 324 338 340 341 346 345 331 331 340 345 353 4 11 316 324 319 311 311 307 303 307 310 305 302 312 316 316 323 328 329 325 321 321 320 321 326 328 328 328
89 88 87 85 81 71 68 68 58 60 58 40 68 88 98 98 93 88 76 63 57 48 43 38 21 9 9 3 352 352 353 346 350 358 352 337 333 328 334 345 349 353 356 356 357 355 352 335 281 328 343 344 339 341 342 329 330 339 343 353 2 6 328 324 312 289 306 313 305 310 310 298 305 318 317 318 327 327 327 325 322 322 322 324 328 329 328 327
84 84 85 82 79 73 66 63 61 60 57 55 77 95 99 95 88 79 69 56 48 45 40 31 21 14 6 0 356 354 350 340 343 353 346 338 337 329 328 335 340 348 353 353 355 354 354 327 277 326 348 350 314 318 328 324 323 327 337 350 351 353 347 329 303 263 304 313 307 316 303 293 311 321 317 319 327 326 325 324 321 320 322 323 326 328 327 326
78 79 79 72 71 74 61 54 57 59 65 73 82 89 91 88 81 73 64 51 45 41 35 27 19 14 6 0 357 353 349 339 335 344 341 336 336 327 323 327 328 339 349 351 355 354 351 321 294 325 340 331 313 319 322 323 320 312 320 341 346 349 351 339 318 302 314 303 295 305 285 293 309 317 313 319 325 325 325 324 322 321 321 323 325 326 327 325
72 72 72 64 57 64 61 51 54 61 71 79 81 82 82 79 72 67 56 44 40 33 28 23 16 12 7 2 356 351 350 341 330 336 336 331 329 322 319 322 319 326 341 351 357 352 344 331 317 322 323 314 314 319 321 329 331 320 318 335 342 345 349 339 314 312 312 296 295 298 282 297 311 314 312 320 324 323 322 322 322 320 318 324 328 327 327 325
71 70 69 64 56 61 63 58 63 68 71 76 77 75 73 69 63 57 46 37 32 25 21 17 12 9 4 0 355 351 351 345 331 330 331 328 327 323 319 319 315 316 329 342 349 351 350 343 332 325 322 320 317 315 320 334 342 334 322 327 329 331 338 330 311 307 302 293 303 307 282 299 315 319 317 322 324 323 323 323 324 322 318 323 329 329 327 325
66 68 69 67 63 67 73 68 66 69 70 72 73 70 67 61 55 48 40 32 25 19 14 8 7 4 360 358 354 349 350 347 334 328 328 327 325 322 318 317 314 312 319 331 342 350 356 349 341 336 335 337 331 328 330 332 336 324 308 313 315 318 327 327 319 311 293 291 308 309 281 296 315 324 325 325 326 324 324 324 324 324 321 322 327 328 326 325
60 68 74 73 67 70 77 73 65 65 68 69 68 64 60 54 48 42 34 27 20 14 6 2 2 357 353 353 349 347 347 343 334 325 325 326 321 319 317 314 312 309 309 320 334 342 347 348 353 351 341 329 321 320 316 314 314 308 301 303 305 308 317 323 320 304 291 302 303 288 282 298 316 328 331 329 328 325 325 325 324 324 323 322 326 328 327 325
70 77 79 78 72 67 71 73 67 62 62 63 62 59 54 46 41 34 26 21 13 8 2 356 355 351 349 349 344 343 343 339 335 324 323 325 320 317 314 310 309 304 301 311 322 335 343 340 340 340 329 312 304 303 305 306 302 300 299 295 295 300 313 322 315 292 296 306 295 287 295 303 314 327 330 327 326 326 326 327 326 325 323 324 329 330 327 325
79 81 78 78 75 69 68 71 68 62 59 56 56 55 48 40 35 26 19 15 6 2 357 351 350 347 345 345 341 341 340 337 333 327 324 324 319 314 311 308 307 299 297 305 311 328 339 327 307 324 329 323 311 307 315 314 300 295 296 292 293 300 313 320 312 292 299 304 297 309 316 309 313 324 326 322 324 326 327 327 326 324 322 326 333 335 331 327
79 80 78 78 78 74 70 69 66 62 56 51 48 47 43 35 29 21 14 9 2 357 352 348 347 343 342 342 340 338 337 334 332 329 326 322 317 313 309 306 304 297 297 301 305 322 333 325 314 324 330 330 324 322 329 323 307 298 294 286 291 303 314 321 319 301 294 291 297 312 316 308 313 323 323 321 323 324 324 324 324 322 322 327 333 335 332 328
78 78 77 77 77 74 70 66 64 60 53 47 41 40 38 30 23 18 10 4 358 354 349 345 342 340 339 340 337 335 334 333 330 328 325 321 316 313 308 304 300 296 297 299 305 319 329 329 325 326 330 333 333 333 335 327 311 303 298 285 293 308 311 318 321 312 302 303 307 310 309 310 319 324 320 320 322 321 321 323 321 323 327 332 334 332 329 326
76 75 74 74 73 71 68 64 60 57 51 45 39 36 33 26 19 13 7 0 355 351 347 342 340 339 338 337 335 333 333 332 328 326 325 321 316 311 305 301 297 296 299 301 306 318 328 329 328 328 333 337 336 336 335 323 304 296 289 278 299 315 314 309 318 319 316 317 319 314 308 314 323 320 316 321 323 321 323 324 324 328 332 334 333 329 325 324
71 70 68 67 68 67 65 62 58 52 47 43 38 33 28 22 16 10 4 358 353 349 345 341 339 338 336 335 333 332 332 331 328 326 324 319 315 310 301 298 295 295 300 301 307 320 327 330 332 333 336 334 329 335 336 320 300 283 265 284 316 324 318 308 315 320 319 318 319 315 309 312 318 317 318 325 327 325 326 327 328 331 333 331 329 328 325 326
64 64 62 60 61 62 62 60 56 50 43 39 34 30 24 17 13 7 1 356 352 348 344 340 338 337 336 334 332 331 332 331 328 325 323 319 317 309 299 296 294 295 298 300 310 321 326 332 335 334 331 325 330 341 339 316 295 274 271 309 325 320 313 315 319 323 324 320 313 310 309 312 318 322 324 328 329 328 326 325 327 330 329 326 327 329 328 330
Height
3131 3131 3132 3132 3133 3133 3134 3134 3134 3134 3134 3133 3133 3132 3132 3131 3131 3130 3130 3129 3129 3128 3128 3127 3127 3127 3126 3126 3125 3124 3124 3123 3123 3122 3121 3121 3120 3120 3119 3119 3118 3117 3117 3117 3116 3116 3115 3115 3115 3114 3114 3114 3114 3113 3113 3113 3112 3112 3113 3114 3115 3114 3114 3112 3111 3110 3110 3109 3108 3106 3103 3102 3101 3100 3100 3098 3097 3096 3095 3093 3092 3090 3087 3087 3086 3085 3084 3082
3131 3131 3132 3133 3133 3134 3134 3134 3134 3134 3134 3133 3133 3132 3132 3131 3131 3131 3130 3129 3129 3128 3128 3128 3127 3127 3126 3125 3125 3124 3123 3123 3122 3122 3122 3121 3121 3120 3119 3119 3118 3117 3117 3116 3116 3115 3115 3115 3114 3114 3114 3113 3113 3113 3112 3112 3112 3112 3113 3114 3114 3113 3112 3111 3110 3109 3108 3108 3106 3104 3102 3100 3099 3098 3098 3097 3095 3094 3093 3092 3090 3088 3087 3086 3085 3084 3082 3081
3131 3132 3132 3133 3133 3134 3134 3135 3134 3134 3134 3133 3133 3132 3132 3132 3131 3131 3130 3130 3129 3129 3128 3128 3127 3127 3126 3125 3124 3124 3123 3123 3123 3122 3122 3122 3121 3120 3119 3118 3118 3117 3116 3116 3116 3115 3115 3114 3114 3113 3113 3113 3113 3113 3112 3112 3112 3112 3113 3114 3113 3111 3110 3109 3109 3108 3107 3106 3104 3102 3100 3099 3098 3097 3096 3095 3093 3091 3091 3091 3089 3087 3086 3085 3085 3083 3082 3081
3131 3132 3132 3133 3134 3134 3134 3135 3134 3134 3134 3133 3133 3133 3132 3132 3132 3131 3131 3130 3129 3129 3128 3128 3127 3126 3126 3125 3124 3124 3123 3123 3123 3123 3122 3121 3121 3120 3119 3118 3118 3117 3116 3116 3115 3115 3114 3114 3113 3113 3113 3113 3113 3112 3112 3111 3111 3111 3112 3112 3111 3110 3109 3108 3108 3107 3106 3105 3103 3101 3099 3098 3097 3096 3094 3094 3092 3090 3089 3089 3088 3087 3086 3084 3083 3083 3081 3080
3131 3132 3133 3133 3134 3134 3135 3135 3134 3134 3134 3133 3133 3133 3133 3133 3132 3131 3131 3130 3130 3129 3128 3127 3127 3126 3125 3125 3124 3124 3123 3123 3123 3123 3122 3121 3121 3120 3119 3118 3118 3117 3116 3116 3115 3114 3114 3114 3113 3113 3113 3113 3112 3112 3112 3111 3111 3111 3111 3111 3110 3110 3109 3108 3107 3106 3104 3103 3101 3100 3099 3097 3096 3094 3093 3092 3091 3090 3088 3087 3087 3086 3085 3084 3082 3081 3080 3079
3132 3133 3133 3134 3134 3135 3135 3135 3134 3134 3134 3134 3134 3134 3133 3133 3132 3132 3131 3130 3130 3129 3128 3127 3127 3126 3126 3125 3125 3124 3124 3124 3124 3123 3122 3122 3121 3120 3119 3119 3118 3117 3116 3116 3115 3114 3114 3113 3113 3113 3113 3113 3113 3112 3112 3111 3111 3110 3110 3110 3109 3109 3108 3107 3106 3104 3103 3102 3101 3099 3098 3096 3095 3093 3092 3091 3090 3089 3087 3087 3086 3085 3084 3083 3081 3080 3079 3078
3132 3133 3134 3134 3135 3135 3135 3135 3135 3134 3134 3134 3134 3134 3134 3133 3132 3131 3131 3130 3129 3129 3128 3128 3127 3127 3126 3126 3125 3124 3124 3125 3124 3124 3123 3122 3121 3120 3120 3119 3118 3117 3117 3116 3115 3115 3114 3114 3113 3114 3113 3113 3113 3112 3112 3111 3110 3110 3110 3109 3109 3108 3107 3106 3105 3103 3102 3101 3100 3099 3098 3096 3094 3093 3091 3090 3089 3088 3087 3086 3085 3083 3082 3081 3080 3079 3078 3077
3132 3133 3134 3135 3135 3135 3135 3135 3135 3135 3135 3135 3135 3134 3134 3133 3132 3132 3131 3130 3129 3129 3129 3128 3127 3127 3126 3126 3125 3125 3126 3126 3125 3124 3123 3122 3122 3121 3120 3119 3118 3118 3117 3116 3116 3115 3114 3114 3114 3114 3113 3113 3113 3112 3111 3111 3110 3110 3110 3109 3108 3107 3107 3106 3104 3103 3101 3101 3100 3098 3097 3096 3094 3092 3091 3089 3088 3087 3087 3085 3084 3083 3082 3081 3080 3078 3077 3075
3133 3134 3135 3136 3136 3135 3135 3135 3135 3135 3136 3135 3135 3134 3134 3133 3132 3132 3131 3130 3130 3130 3129 3128 3128 3127 3127 3127 3126 3126 3127 3126 3125 3125 3124 3123 3122 3121 3120 3119 3119 3118 3117 3117 3116 3115 3115 3114 3114 3114 3113 3113 3113 3112 3111 3111 3111 3111 3110 3109 3108 3107 3106 3105 3104 3103 3101 3100 3099 3098 3097 3096 3094 3092 3091 3089 3087 3087 3086 3084 3083 3082 3081 3080 3079 3077 3076 3074
3133 3134 3135 3136 3135 3136 3136 3136 3136 3136 3136 3136 3135 3135 3134 3133 3133 3132 3131 3131 3131 3130 3130 3129 3129 3128 3128 3128 3127 3127 3128 3127 3126 3125 3124 3123 3122 3121 3121 3120 3119 3119 3118 3117 3116 3116 3115 3115 3114 3114 3114 3114 3113 3112 3112 3111 3112 3111 3109 3109 3108 3107 3107 3105 3104 3103 3102 3100 3099 3098 3097 3095 3094 3092 3090 3088 3087 3086 3085 3084 3083 3081 3080 3079 3078 3076 3075 3073
3134 3135 3135 3135 3136 3136 3136 3136 3137 3137 3136 3136 3135 3135 3134 3133 3133 3132 3132 3132 3132 3131 3131 3130 3129 3129 3128 3128 3128 3128 3128 3127 3126 3125 3125 3123 3123 3122 3121 3120 3120 3119 3118 3118 3117 3117 3116 3115 3115 3114 3114 3114 3114 3113 3113 3112 3112 3111 3110 3109 3108 3108 3107 3106 3105 3103 3102 3100 3099 3098 3097 3095 3094 3092 3090 3088 3087 3086 3085 3083 3082 3081 3079 3078 3076 3075 3073 3072
3134 3135 3135 3136 3136 3137 3137 3137 3137 3137 3137 3136 3135 3135 3134 3134 3133 3133 3133 3133 3133 3132 3132 3131 3130 3130 3130 3130 3130 3129 3128 3127 3127 3126 3125 3124 3123 3122 3121 3121 3120 3120 3119 3119 3118 3118 3117 3116 3115 3115 3115 3115 3114 3113 3113 3113 3112 3111 3110 3109 3109 3108 3107 3106 3105 3103 3101 3100 3099 3098 3097 3094 3092 3091 3089 3087 3086 3085 3084 3083 3081 3080 3078 3077 3075 3074 3072 3070
3135 3135 3136 3136 3137 3137 3138 3138 3138 3137 3137 3136 3136 3135 3135 3135 3134 3134 3134 3134 3134 3133 3133 3132 3131 3131 3131 3131 3130 3129 3129 3128 3127 3126 3125 3124 3123 3123 3122 3121 3121 3120 3120 3119 3119 3119 3118 3117 3116 3116 3116 3116 3115 3114 3114 3113 3112 3112 3111 3110 3110 3109 3108 3107 3106 3104 3101 3100 3098 3098 3097 3093 3090 3090 3089 3087 3085 3084 3083 3082 3080 3079 3078 3076 3074 3073 3071 3069
3135 3136 3137 3137 3138 3138 3138 3138 3138 3137 3137 3137 3136 3136 3136 3136 3136 3135 3135 3135 3134 3134 3133 3133 3132 3132 3132 3131 3130 3130 3129 3128 3127 3126 3125 3125 3124 3124 3123 3122 3122 3121 3121 3120 3120 3119 3118 3118 3117 3117 3117 3116 3115 3115 3115 3114 3113 3112 3111 3111 3111 3110 3109 3107 3105 3104 3102 3100 3098 3098 3097 3092 3089 3089 3088 3086 3084 3083 3082 3080 3079 3078 3077 3075 3073 3071 3069 3068
3136 3137 3137 3138 3138 3139 3138 3138 3138 3138 3137 3137 3137 3137 3137 3137 3137 3136 3136 3136 3135 3135 3134 3134 3133 3133 3132 3132 3131 3130 3129 3128 3128 3127 3126 3126 3125 3125 3124 3124 3123 3122 3122 3121 3120 3120 3119 3119 3119 3118 3117 3117 3116 3115 3115 3115 3114 3113 3112 3112 3111 3110 3109 3106 3105 3103 3102 3100 3098 3097 3096 3092 3089 3088 3087 3085 3083 3082 3080 3079 3078 3077 3076 3074 3072 3070 3068 3066
3137 3137 3138 3138 3139 3139 3139 3139 3138 3138 3138 3138 3138 3138 3138 3138 3138 3137 3137 3136 3136 3136 3135 3135 3134 3133 3133 3132 3132 3131 3130 3129 3129 3128 3127 3127 3126 3126 3125 3125 3124 3123 3123 3123 3122 3121 3121 3121 3120 3119 3118 3117 3116 3115 3116 3116 3115 3113 3113 3113 3111 3109 3108 3106 3105 3103 3101 3099 3097 3096 3095 3092 3089 3088 3086 3084 3082 3081 3079 3077 3076 3075 3074 3072 3070 3068 3066 3064
3137 3138 3139 3139 3139 3139 3139 3139 3139 3139 3139 3139 3139 3139 3139 3139 3138 3138 3138 3137 3137 3136 3136 3135 3135 3134 3134 3133 3133 3132 3131 3131 3130 3129 3128 3128 3127 3127 3126 3126 3125 3125 3124 3124 3123 3122 3122 3121 3120 3119 3119 3118 3117 3115 3116 3116 3115 3114 3113 3113 3112 3110 3108 3107 3105 3103 3100 3098 3095 3094 3093 3091 3089 3087 3085 3083 3082 3079 3077 3076 3075 3074 3072 3070 3068 3066 3064 3062
3138 3139 3139 3139 3140 3140 3140 3140 3140 3140 3140 3141 3140 3140 3140 3140 3139 3139 3138 3138 3138 3137 3136 3136 3135 3135 3135 3134 3134 3133 3132 3131 3131 3130 3129 3129 3128 3128 3127 3127 3126 3126 3125 3125 3124 3123 3122 3122 3121 3120 3119 3118 3117 3115 3116 3117 3117 3115 3114 3112 3111 3109 3108 3107 3104 3102 3100 3097 3095 3092 3091 3089 3087 3085 3084 3082 3080 3078 3076 3075 3073 3072 3070 3068 3066 3064 3062 3060
3139 3139 3139 3140 3140 3141 3141 3141 3141 3141 3142 3142 3142 3142 3141 3141 3141 3140 3139 3139 3138 3138 3138 3137 3137 3136 3136 3135 3134 3134 3133 3133 3132 3131 3131 3130 3129 3129 3128 3128 3127 3127 3126 3126 3125 3124 3123 3122 3121 3120 3119 3118 3117 3117 3117 3118 3117 3116 3114 3112 3110 3108 3107 3106 3104 3101 3098 3096 3095 3092 3089 3087 3085 3083 3082 3080 3078 3076 3074 3073 3072 3070 3068 3067 3065 3063 3060 3058
3139 3140 3140 3141 3141 3142 3142 3142 3143 3143 3143 3143 3143 3143 3142 3142 3142 3141 3140 3140 3139 3139 3139 3139 3138 3137 3137 3136 3135 3135 3135 3134 3133 3132 3132 3131 3130 3130 3129 3129 3128 3128 3128 3127 3125 3124 3123 3122 3121 3120 3120 3120 3119 3119 3118 3117 3117 3115 3113 3112 3110 3109 3106 3105 3103 3099 3097 3095 3093 3091 3088 3085 3083 3082 3080 3079 3077 3074 3073 3071 3070 3068 3066 3065 3063 3060 3058 3055
3140 3140 3141 3142 3142 3143 3143 3144 3144 3144 3144 3144 3144 3144 3144 3144 3143 3143 3142 3141 3140 3140 3140 3140 3139 3139 3138 3138 3137 3136 3136 3135 3134 3134 3133 3132 3132 3131 3130 3130 3130 3129 3128 3127 3126 3125 3124 3122 3122 3122 3122 3121 3120 3119 3118 3117 3116 3114 3113 3112 3110 3108 3105 3102 3100 3097 3095 3093 3091 3088 3085 3082 3080 3079 3078 3077 3075 3073 3071 3069 3068 3067 3065 3063 3060 3058 3055 3053
3141 3141 3142 3143 3143 3144 3144 3145 3145 3146 3146 3146 3146 3146 3146 3145 3145 3145 3143 3142 3142 3142 3142 3141 3141 3141 3140 3139 3138 3137 3137 3137 3136 3136 3134 3134 3133 3132 3132 3132 3131 3130 3128 3128 3127 3126 3124 3123 3123 3123 3122 3122 3120 3119 3118 3116 3115 3113 3113 3111 3109 3107 3102 3098 3097 3095 3093 3091 3088 3086 3084 3080 3077 3076 3075 3073 3072 3070 3069 3068 3067 3065 3063 3060 3057 3055 3052 3050
3142 3142 3143 3144 3144 3145 3146 3146 3146 3147 3147 3147 3147 3147 3147 3146 3146 3145 3145 3144 3144 3144 3143 3143 3143 3142 3142 3141 3140 3140 3139 3139 3138 3137 3136 3135 3135 3134 3133 3132 3131 3130 3129 3128 3127 3126 3124 3124 3125 3124 3123 3121 3120 3119 3117 3116 3114 3113 3112 3110 3108 3105 3102 3097 3094 3092 3091 3088 3086 3084 3083 3078 3074 3073 3073 3070 3069 3067 3066 3066 3064 3062 3060 3057 3055 3052 3049 3046
3143 3144 3145 3145 3146 3147 3147 3147 3147 3148 3148 3148 3148 3148 3148 3147 3147 3146 3146 3145 3145 3145 3145 3145 3144 3144 3143 3143 3142 3141 3141 3140 3139 3138 3137 3136 3136 3135 3134 3133 3131 3130 3129 3128 3127 3126 3125 3125 3125 3123 3122 3121 3119 3118 3117 3115 3114 3113 3111 3110 3107 3104 3101 3098 3093 3090 3088 3085 3084 3083 3080 3075 3072 3072 3070 3068 3066 3065 3064 3063 3061 3059 3056 3054 3052 3049 3046 3042
3145 3145 3146 3147 3147 3148 3148 3148 3148 3149 3149 3149 3149 3149 3149 3148 3148 3147 3147 3146 3146 3146 3146 3146 3145 3145 3145 3144 3143 3142 3142 3141 3140 3139 3138 3137 3136 3135 3134 3133 3131 3130 3129 3128 3128 3127 3126 3126 3125 3123 3122 3121 3119 3118 3117 3115 3115 3113 3111 3109 3106 3102 3099 3096 3092 3088 3086 3083 3082 3081 3078 3073 3071 3069 3066 3065 3064 3062 3061 3059 3057 3056 3053 3051 3048 3044 3041 3037
3146 3147 3147 3148 3148 3149 3149 3149 3149 3149 3150 3150 3150 3149 3149 3149 3148 3148 3147 3147 3148 3148 3147 3147 3146 3146 3146 3145 3144 3143 3143 3142 3141 3140 3139 3138 3136 3135 3134 3133 3131 3130 3129 3128 3128 3127 3127 3126 3124 3123 3122 3121 3120 3118 3117 3115 3114 3113 3110 3107 3104 3100 3097 3093 3091 3088 3086 3083 3080 3079 3078 3073 3069 3066 3064 3062 3061 3060 3058 3057 3055 3053 3050 3047 3044 3040 3036 3033
3147 3148 3148 3149 3149 3150 3150 3150 3150 3150 3150 3150 3150 3150 3149 3149 3148 3149 3148 3148 3149 3150 3149 3149 3148 3147 3147 3146 3145 3144 3143 3143 3141 3140 3139 3138 3136 3135 3134 3133 3132 3131 3130 3129 3128 3128 3127 3125 3124 3123 3122 3121 3120 3118 3116 3114 3113 3111 3108 3105 3102 3098 3095 3091 3089 3087 3085 3081 3078 3078 3078 3073 3068 3066 3063 3061 3060 3058 3056 3055 3053 3051 3048 3045 3042 3038 3034 3031
3148 3149 3149 3150 3150 3150 3151 3151 3151 3151 3151 3151 3150 3150 3150 3149 3149 3149 3149 3150 3153 3152 3151 3150 3149 3149 3148 3147 3146 3145 3144 3143 3142 3141 3139 3138 3136 3135 3134 3133 3132 3131 3130 3129 3129 3128 3127 3126 3124 3123 3122 3121 3119 3117 3116 3113 3111 3109 3106 3103 3100 3096 3093 3090 3087 3085 3083 3080 3077 3076 3077 3073 3068 3065 3062 3059 3059 3057 3056 3055 3052 3049 3046 3043 3040 3036 3033 3029
3149 3150 3150 3150 3151 3151 3151 3151 3151 3151 3151 3151 3150 3150 3150 3150 3150 3150 3149 3153 3155 3154 3152 3151 3150 3150 3149 3148 3147 3146 3145 3144 3142 3141 3140 3138 3137 3135 3134 3133 3132 3131 3131 3130 3129 3128 3127 3125 3124 3123 3122 3120 3118 3117 3114 3112 3110 3107 3104 3100 3096 3093 3090 3087 3085 3083 3082 3080 3077 3075 3076 3073 3067 3062 3060 3059 3058 3057 3056 3054 3051 3047 3044 3040 3037 3034 3030 3026
3150 3151 3151 3151 3151 3152 3152 3152 3151 3151 3151 3151 3151 3151 3151 3151 3151 3150 3151 3155 3156 3154 3153 3152 3151 3150 3149 3148 3148 3146 3145 3144 3142 3141 3140 3139 3137 3136 3135 3133 3132 3131 3130 3129 3129 3128 3126 3125 3124 3122 3121 3120 3118 3115 3113 3111 3109 3105 3101 3096 3092 3090 3088 3085 3083 3082 3081 3078 3077 3076 3076 3075 3067 3060 3059 3059 3058 3057 3055 3052 3049 3044 3041 3038 3034 3030 3026 3020
3151 3151 3152 3152 3152 3152 3152 3151 3151 3151 3151 3151 3151 3151 3151 3151 3151 3151 3154 3157 3156 3155 3154 3153 3152 3151 3150 3149 3148 3146 3145 3144 3143 3142 3141 3139 3138 3137 3135 3134 3132 3131 3130 3130 3129 3127 3126 3124 3123 3122 3121 3119 3117 3114 3112 3110 3107 3104 3101 3097 3092 3088 3086 3085 3083 3082 3080 3077 3076 3075 3074 3073 3067 3059 3058 3058 3057 3055 3052 3048 3044 3040 3037 3033 3029 3025 3021 3016
3152 3152 3152 3152 3152 3152 3152 3151 3151 3151 3151 3151 3151 3151 3152 3152 3152 3153 3156 3157 3156 3155 3155 3153 3153 3152 3150 3149 3148 3147 3146 3144 3143 3142 3141 3140 3138 3137 3136 3134 3133 3132 3131 3131 3129 3127 3125 3123 3123 3121 3120 3118 3116 3114 3112 3110 3107 3105 3102 3098 3094 3089 3086 3086 3083 3081 3079 3076 3076 3076 3073 3069 3064 3058 3056 3055 3053 3050 3046 3042 3038 3035 3032 3029 3025 3022 3017 3011
3152 3152 3152 3152 3152 3152 3152 3152 3152 3152 3152 3152 3152 3152 3152 3153 3155 3156 3156 3156 3156 3155 3155 3154 3153 3152 3151 3149 3148 3147 3146 3144 3143 3142 3141 3140 3138 3137 3136 3135 3134 3133 3132 3131 3129 3127 3125 3123 3122 3120 3118 3116 3115 3114 3112 3110 3109 3106 3103 3101 3098 3095 3094 3092 3087 3082 3079 3074 3073 3075 3072 3067 3061 3057 3055 3053 3051 3047 3043 3040 3036 3033 3030 3027 3024 3019 3012 3005
3153 3153 3153 3153 3153 3153 3153 3153 3153 3153 3153 3153 3153 3153 3153 3154 3157 3157 3157 3156 3156 3155 3154 3154 3153 3152 3151 3149 3148 3147 3146 3145 3143 3142 3141 3139 3138 3137 3136 3135 3134 3133 3132 3130 3128 3127 3125 3123 3121 3120 3118 3116 3114 3113 3112 3110 3109 3107 3105 3105 3103 3102 3102 3098 3091 3087 3083 3075 3070 3071 3070 3066 3061 3056 3054 3052 3050 3047 3043 3040 3036 3031 3027 3024 3020 3013 3006 3000
3153 3153 3153 3153 3154 3154 3154 3154 3154 3154 3154 3154 3154 3154 3154 3156 3158 3158 3157 3157 3156 3155 3155 3154 3153 3152 3151 3150 3149 3147 3146 3145 3143 3142 3141 3139 3138 3137 3136 3135 3134 3133 3131 3130 3129 3127 3124 3122 3120 3119 3118 3116 3114 3113 3112 3110 3109 3108 3106 3105 3104 3103 3102 3098 3093 3090 3086 3078 3071 3068 3067 3066 3062 3056 3052 3051 3049 3047 3043 3040 3036 3029 3023 3019 3014 3007 3001 2996
3154 3154 3154 3155 3155 3155 3155 3155 3155 3155 3155 3155 3155 3155 3156 3157 3158 3158 3157 3157 3156 3156 3155 3154 3153 3152 3151 3150 3149 3147 3146 3145 3143 3142 3140 3139 3138 3137 3136 3135 3134 3132 3131 3130 3129 3127 3125 3122 3120 3119 3117 3115 3114 3112 3111 3110 3109 3108 3107 3105 3103 3101 3100 3097 3092 3088 3085 3079 3071 3067 3065 3062 3059 3054 3049 3048 3047 3045 3041 3037 3033 3027 3020 3015 3009 3003 2997 2992
3156 3156 3156 3156 3156 3156 3156 3156 3156 3156 3156 3155 3156 3157 3157 3158 3158 3158 3158 3157 3157 3156 3155 3155 3154 3153 3152 3151 3149 3148 3146 3145 3144 3142 3141 3139 3138 3137 3136 3135 3133 3132 3131 3130 3129 3128 3126 3122 3120 3119 3117 3115 3113 3111 3109 3109 3108 3108 3107 3104 3101 3099 3098 3097 3092 3086 3084 3079 3070 3066 3065 3060 3056 3052 3048 3046 3045 3042 3038 3032 3026 3021 3016 3010 3005 2999 2994 2988
3157 3157 3157 3157 3158 3158 3157 3157 3157 3157 3157 3157 3157 3157 3158 3158 3158 3158 3158 3158 3157 3157 3156 3155 3155 3154 3152 3151 3150 3148 3147 3146 3144 3143 3142 3140 3138 3137 3136 3135 3134 3133 3132 3130 3129 3128 3126 3123 3120 3120 3118 3114 3112 3111 3109 3107 3106 3105 3104 3102 3101 3100 3099 3097 3094 3089 3086 3079 3070 3065 3064 3060 3055 3052 3047 3045 3042 3039 3034 3028 3021 3015 3010 3005 3000 2995 2990 2985
3159 3159 3159 3159 3159 3159 3158 3158 3158 3158 3158 3158 3158 3158 3159 3159 3159 3159 3159 3158 3158 3157 3157 3156 3155 3154 3153 3152 3151 3149 3148 3147 3145 3144 3143 3141 3139 3138 3136 3135 3134 3133 3132 3130 3129 3127 3126 3124 3121 3119 3117 3114 3111 3111 3110 3108 3106 3104 3102 3101 3100 3100 3099 3096 3094 3092 3088 3082 3072 3065 3060 3056 3053 3050 3046 3043 3040 3036 3031 3025 3018 3012 3007 3002 2997 2991 2986 2980
3160 3160 3160 3160 3160 3160 3160 3159 3159 3159 3159 3159 3159 3158 3159 3160 3160 3160 3159 3159 3159 3158 3157 3157 3156 3155 3154 3152 3151 3150 3148 3147 3146 3145 3143 3142 3140 3138 3137 3135 3134 3133 3132 3130 3129 3126 3125 3124 3121 3117 3116 3115 3112 3111 3110 3108 3106 3104 3102 3101 3099 3099 3097 3094 3092 3090 3089 3084 3077 3069 3058 3050 3049 3048 3045 3042 3038 3034 3028 3022 3015 3010 3005 3000 2994 2988 2983 2977
3162 3162 3162 3161 3161 3161 3161 3160 3160 3161 3160 3160 3159 3160 3160 3161 3160 3160 3160 3160 3159 3158 3158 3157 3156 3155 3154 3153 3152 3150 3149 3147 3146 3145 3143 3142 3140 3138 3137 3135 3134 3133 3132 3130 3128 3126 3124 3123 3120 3116 3114 3113 3111 3109 3107 3106 3104 3103 3101 3099 3098 3097 3095 3093 3090 3088 3088 3085 3080 3074 3060 3046 3045 3047 3044 3041 3036 3031 3026 3019 3012 3006 3001 2996 2991 2984 2979 2973
3164 3164 3163 3163 3163 3162 3162 3162 3162 3162 3161 3160 3161 3161 3161 3161 3161 3161 3161 3160 3160 3159 3158 3157 3156 3155 3154 3153 3152 3150 3149 3147 3146 3145 3143 3141 3140 3138 3136 3135 3133 3132 3131 3129 3127 3125 3123 3121 3119 3116 3113 3111 3109 3107 3105 3103 3101 3099 3098 3096 3096 3096 3095 3094 3091 3086 3086 3082 3077 3074 3061 3044 3043 3046 3042 3038 3034 3028 3022 3016 3010 3003 2996 2991 2986 2980 2975 2969
3165 3165 3164 3164 3164 3163 3163 3163 3163 3163 3162 3162 3162 3162 3162 3162 3162 3162 3161 3161 3160 3159 3158 3157 3156 3155 3154 3153 3151 3150 3148 3146 3145 3144 3142 3141 3139 3137 3136 3134 3133 3131 3129 3128 3126 3125 3122 3120 3118 3115 3111 3108 3106 3104 3102 3100 3099 3096 3094 3093 3094 3094 3093 3093 3090 3086 3083 3079 3074 3071 3057 3039 3039 3042 3038 3035 3031 3024 3019 3013 3006 3000 2992 2986 2981 2976 2970 2965
3167 3166 3165 3165 3165 3164 3164 3164 3164 3164 3163 3163 3163 3163 3163 3163 3163 3162 3162 3161 3160 3159 3158 3157 3156 3155 3153 3152 3151 3149 3147 3146 3144 3142 3141 3139 3137 3136 3134 3132 3131 3129 3128 3126 3125 3124 3122 3120 3118 3115 3111 3107 3104 3103 3102 3100 3100 3098 3094 3091 3091 3091 3091 3090 3087 3084 3080 3076 3074 3071 3054 3035 3032 3034 3032 3030 3026 3020 3016 3010 3003 2997 2990 2983 2977 2972 2967 2961
3168 3167 3167 3166 3166 3166 3166 3165 3165 3165 3164 3164 3164 3164 3164 3163 3163 3163 3162 3161 3160 3159 3158 3157 3156 3154 3153 3152 3150 3149 3147 3145 3143 3141 3139 3137 3135 3134 3132 3131 3130 3128 3127 3125 3124 3123 3122 3121 3120 3118 3115 3112 3108 3106 3105 3102 3100 3098 3094 3091 3089 3089 3090 3088 3085 3082 3077 3072 3071 3068 3054 3035 3028 3027 3024 3023 3021 3015 3011 3006 3000 2994 2987 2980 2974 2968 2962 2957
3169 3169 3168 3167 3168 3168 3167 3166 3167 3166 3165 3165 3165 3165 3164 3164 3164 3163 3162 3162 3161 3160 3158 3157 3156 3154 3153 3151 3150 3148 3146 3145 3143 3140 3138 3137 3135 3133 3131 3130 3129 3127 3126 3124 3123 3122 3120 3119 3119 3118 3118 3115 3111 3108 3106 3103 3099 3096 3094 3090 3087 3087 3088 3086 3084 3080 3075 3069 3063 3060 3055 3040 3027 3022 3018 3016 3015 3011 3006 3001 2995 2989 2983 2977 2971 2965 2959 2954
3170 3170 3169 3169 3169 3169 3168 3168 3168 3167 3167 3167 3166 3165 3165 3165 3164 3164 3163 3162 3161 3160 3158 3157 3156 3154 3153 3151 3150 3148 3146 3144 3142 3140 3138 3136 3134 3132 3131 3129 3128 3126 3125 3124 3122 3121 3119 3118 3117 3116 3115 3113 3108 3105 3103 3101 3097 3093 3091 3088 3085 3084 3084 3083 3080 3077 3074 3069 3057 3050 3051 3042 3028 3021 3017 3012 3009 3005 3000 2996 2991 2985 2980 2973 2967 2961 2955 2950
3172 3171 3171 3171 3170 3170 3170 3169 3169 3168 3168 3168 3167 3167 3166 3166 3165 3164 3163 3162 3161 3160 3158 3157 3156 3154 3153 3151 3150 3148 3146 3144 3142 3140 3138 3136 3134 3132 3130 3128 3127 3125 3124 3123 3121 3120 3118 3117 3115 3113 3111 3109 3106 3103 3100 3097 3094 3090 3088 3086 3083 3082 3080 3078 3076 3073 3072 3069 3056 3046 3045 3039 3029 3023 3018 3012 3007 3002 2997 2994 2988 2983 2977 2970 2963 2956 2950 2944
3174 3173 3173 3172 3172 3171 3171 3170 3170 3169 3169 3169 3168 3168 3167 3166 3165 3164 3163 3162 3161 3160 3158 3157 3156 3154 3153 3151 3150 3148 3146 3144 3141 3139 3137 3135 3133 3131 3130 3128 3126 3125 3124 3122 3121 3119 3117 3115 3113 3110 3107 3105 3102 3100 3097 3093 3090 3087 3085 3084 3082 3080 3078 3075 3072 3070 3068 3064 3057 3049 3042 3035 3029 3024 3017 3011 3007 3001 2995 2991 2985 2979 2972 2965 2958 2951 2946 2941
3176 3175 3175 3174 3173 3172 3172 3172 3171 3171 3170 3170 3169 3169 3168 3167 3166 3164 3163 3162 3161 3159 3158 3157 3155 3154 3152 3151 3149 3147 3146 3144 3141 3139 3137 3135 3133 3131 3129 3127 3126 3124 3123 3122 3120 3119 3117 3114 3112 3108 3104 3102 3099 3097 3095 3091 3087 3085 3083 3082 3081 3079 3076 3073 3070 3067 3063 3057 3051 3047 3039 3031 3028 3024 3016 3009 3004 2998 2991 2985 2979 2973 2967 2961 2955 2949 2944 2938
3178 3177 3177 3176 3175 3174 3173 3173 3172 3172 3171 3171 3170 3169 3168 3167 3166 3164 3163 3162 3161 3159 3158 3156 3155 3153 3152 3150 3148 3147 3145 3143 3140 3138 3136 3134 3132 3130 3128 3127 3125 3124 3122 3121 3119 3118 3116 3113 3110 3106 3103 3101 3099 3096 3092 3087 3084 3083 3082 3081 3080 3076 3073 3072 3069 3065 3061 3053 3045 3041 3034 3027 3024 3020 3011 3003 2998 2992 2986 2980 2974 2967 2962 2958 2953 2947 2941 2934
3181 3179 3179 3178 3177 3176 3175 3174 3174 3173 3173 3172 3170 3169 3168 3167 3166 3165 3163 3162 3161 3159 3158 3156 3154 3153 3151 3149 3147 3146 3144 3142 3139 3137 3135 3133 3131 3129 3128 3126 3125 3123 3121 3120 3118 3117 3115 3112 3109 3105 3101 3099 3097 3094 3089 3085 3081 3080 3080 3079 3077 3075 3072 3069 3065 3062 3059 3053 3045 3038 3032 3026 3021 3015 3006 2998 2992 2986 2982 2978 2971 2964 2958 2954 2951 2944 2937 2929